Pacific - South Coast: Past 24 Hour Conditions

 

Cape St.James

08:00 PM PDT 21 October 2014
This table is a summary of hourly weather conditions for the past 24 hours.
Date / Time
(PDT)
Wind(knots) Conditions Visibility(km) Pressure(kPa) Air tempC) Relative humidity(%) Dew pointC)
21 October 2014
20:00 SSW 20 N/A N/A 99.3 11 77 7
19:00 SSW 15 N/A N/A 99.2 10 80 7
18:00 S 17 gust 24 N/A N/A 99.3 10 79 7
17:00 S 32 N/A N/A 99.2 11 76 7
16:00 S 32 N/A N/A 99.3 12 77 8
15:00 S 29 N/A N/A 99.3 12 75 8
14:00 SSW 24 gust 30 N/A N/A 99.3 11 77 8
13:00 SSW 29 gust 35 N/A N/A 99.2 12 77 8
12:00 S 23 gust 32 N/A N/A 99.2 11 77 7
11:00 SSW 33 N/A N/A 99.1 11 82 8
10:00 S 29 N/A N/A 99.1 11 80 8
9:00 S 50 gust 56 N/A N/A 99.0 10 82 7
8:00 S 26 gust 31 N/A N/A 99.0 12 79 8
7:00 SSE 22 N/A N/A 99.1 12 83 9
6:00 S 24 N/A N/A 99.1 11 85 9
5:00 SSW 30 gust 36 N/A N/A 99.1 11 88 9
4:00 SSE 26 gust 42 N/A N/A 99.1 11 93 10
3:00 SSE 32 gust 39 N/A N/A 99.2 12 79 8
2:00 SSE 26 gust 31 N/A N/A 99.4 12 85 9
1:00 SSE 27 gust 32 N/A N/A 99.5 10 88 9
0:00 SSE 21 gust 26 N/A N/A 99.6 11 86 9
20 October 2014
23:00 SSE 28 gust 35 N/A N/A 99.7 10 87 7
22:00 SSE 17 N/A N/A 99.7 11 83 8
21:00 SSE 15 N/A N/A 99.8 11 84 9
20:00 SSE 13 N/A N/A 99.9 11 84 8
 
Map of Pacific - South Coast marine weather areas Tsawwassen Ferry Terminal South Nomad - 46036 Sentry Shoal - 46131 South Brooks - 46132 Halibut Bank - 46146 South Moresby - 46147 South Hecate Strait - 46185 West Sea Otter - 46204 La Perouse Bank - 46206 East Dellwood - 46207 Discovery Island Esquimalt Harbour Kelp Reefs Malahat Race Rocks Lightstation Saturna Island Sheringham Point University of Victoria Victoria Gonzales Victoria Int'l Airport Ballenas Islands Campbell River Airport Comox Airport Entrance Island Fanny Island Nanaimo Airport Port Hardy Airport Sisters Islets Estevan Point Sartine Island Solander Island Tofino Airport Grief Point Powell River Airport Sechelt Cape St.James Bella Bella Airport Bella Coola Airport Cathedral Point Herbert Island Point Atkinson Sand Heads Lightstation Vancouver Harbour Vancouver Int'l Airport West Vancouver Port Alberni Howe Sound - Pam Rocks Squamish Airport